Regional Weather Roundup
Issued by NWS Jackson, KY

Home | Current Version | Previous Version | Text Only | Print | Product List | Glossary Off
Versions: 1 2 3 4 5 6 7 8 9 10 11 12 13 14 15 16 17 18 19 20 21 22 23 24 25 26 27

000
ASUS43 KJKL 220310
RWRJKL

EAST KENTUCKY HOURLY WEATHER ROUNDUP
NATIONAL WEATHER SERVICE JACKSON KY
1100 PM EDT SUN MAY 21 2017

NOTE: "FAIR" INDICATES FEW OR NO CLOUDS BELOW 12,000 FEET WITH
NO SIGNIFICANT WEATHER AND/OR OBSTRUCTIONS TO VISIBILITY.

* THESE REPORTS ARE NOT UNDER NWS QUALITY CONTROL AND MAY NOT
  REPORT WEATHER SUCH AS PRECIPITATION AND FOG.

KYZ079-080-083-085-087-088-110-112-115-119-120-220400
...EASTERN KENTUCKY...

CITY           SKY/WX    TMP DP  RH WIND       PRES   REMARKS
JACKSON        PTCLDY    67  62  84 CALM      30.07R
LONDON         MOCLDY    68  64  87 NW10      30.08R
SOMERSET*      MOCLDY    64  64 100 CALM      30.08S
WILLIAMSBURG*  MOCLDY    68  66  94 S5        30.07S
MIDDLESBORO*   CLOUDY    65  65 100 CALM      30.10S
HARLAN APT*    CLOUDY    64  61  88 CALM      30.11R
PIKE CO APT*     N/A     66  65  97 SE6       30.08R
BIG SANDY APT* PTCLDY    67  64  93 CALM      30.07R
MOREHEAD APT*  CLOUDY    64  63  94 S7        30.07R
ASHLAND*       CLOUDY   N/A N/A N/A SE3       30.01R
$$

KYZ035-036-041-042-044-050-067-078-099-220400
...CENTRAL KENTUCKY...

CITY           SKY/WX    TMP DP  RH WIND       PRES   REMARKS
MT STERLING*   LGT RAIN  64  64 100 SW5       30.06F
FLEMING/MASON* CLOUDY    65  64  97 S7        30.05R
DANVILLE*      MOCLDY    64  61  88 S3        30.07R
LEXINGTON      PTCLDY    65  62  90 SW6       30.05R
FRANKFORT      CLOUDY    67  62  84 W3        30.03R
LOUISVILLE     MOCLDY    69  53  56 NW7       30.06R
LEBANON*         N/A     66  64  94 CALM      30.06R
GLASGOW*       PTCLDY    67  67 100 CALM      30.08R
BOWLING GREEN  CLEAR     71  59  65 W8        30.09R
$$

KYZ091>093-OHZ055-061-077-WVZ005-015-034-035-042-220400
...SOUTHERN OHIO/WEST VIRGINIA...

CITY           SKY/WX    TMP DP  RH WIND       PRES   REMARKS
COVINGTON      PTCLDY    64  58  80 W8        30.03R
COLUMBUS       CLEAR     69  66  90 S9        29.98S
DAYTON         PTCLDY    65  55  70 W8        30.03R
WILMINGTON     MOCLDY    67  66  97 SW8       30.00R
HUNTINGTON     CLOUDY    67  63  87 S5        30.03F
CHARLESTON     CLOUDY    67  63  87 SW6       30.05S
PINEVILLE*     PTCLDY    62  61  96 MISG      30.16S FOG
BECKLEY        LGT RAIN  60  58  92 SE9       30.14F
BLUEFIELD      CLOUDY    60  57  89 SE6       30.17S
LOGAN CO APT*    N/A     66  61  82 S6G15     30.08S
$$

VAZ002-007-008-TNZ017-027-036-066-071-220400
...SOUTHWEST VIRGINIA/EAST TENNESSEE...

CITY           SKY/WX    TMP DP  RH WIND       PRES   REMARKS
JONESVILLE*      N/A     64  64 100 CALM      30.13R
ABINGDON*      PTCLDY    64  63  97 E6        30.14S
BRISTOL        CLOUDY    64  62  93 CALM      30.11F
MORRISTOWN*    PTCLDY    66  64  94 CALM      30.09S
SEVIERVILLE*   CLEAR     64  64 100 CALM      30.08S
KNOXVILLE      CLOUDY    69  65  86 CALM      30.07S
LAFOLLETTE*    MOCLDY    66  64  94 CALM      30.11S
OAK RIDGE      CLOUDY    71  66  84 CALM      30.09S
CROSSVILLE     CLOUDY    66  65  96 VRB3      30.12R
NASHVILLE      CLOUDY    73  64  73 W7        30.09R
$$

...KEY TO REMARKS...
VSB - VISIBILITY IN MILES
WCI - WIND CHILL INDEX
HX  - HEAT INDEX

$$




USA.gov is the U.S. government's official web portal to all federal, state and local government web resources and services.